Location: Besigheim
(48.9980°N, 9.1427°E)
Time: 17:23:53
(UTC+00:00)

SL-24 R/B - RUBIN 2 - Pass Details

Date: 23 February 2026
Orbit: 603 x 984 km, 64.6° (Epoch: 8 March)

Event Time Altitude Azimuth Distance (km) Brightness Sun altitude
Rises 05:40:19 0° 322° (NW) 2,895 6.6 -6.8°
Reaches altitude 10° 05:43:22 10° 343° (NNW) 1,965 5.9 -6.3°
Maximum altitude 05:46:12 17° 24° (NNE) 1,571 5.9 -5.9°
Drops below altitude 10° 05:49:01 10° 64° (ENE) 1,961 7.1 -5.4°
Sets 05:52:03 0° 86° (E) 2,887 9.0 -4.9°
